Regional Weather Roundup
Issued by NWS Charleston, WV

Current Version | Previous Version | Text Only | Print | Product List | Glossary On
Versions: 1 2 3 4 5 6 7 8 9 10 11 12 13 14 15 16 17 18 19 20 21 22 23 24 25 26 27 28 29 30 31 32 33 34 35 36 37 38 39 40 41 42 43 44 45 46 47 48 49 50
000
ASUS41 KRLX 141610
RWRRLX
West Virginia Regional Weather Roundup
National Weather Service Charleston WV
1200 PM EDT MON JUL 14 2014

Note: "fair" indicates few or no clouds below 12,000 feet with no
significant weather and/or obstructions to visibility.

WVZ003-141700-
Northern Panhandle of West Virginia

CITY           SKY/WX    TMP DP  RH WIND       PRES   REMARKS
WHEELING       LGT RAIN  71  69  93 S7        29.92S
$$

WVZ009-141700-
Northwest West Virginia

CITY           SKY/WX    TMP DP  RH WIND       PRES   REMARKS
PARKERSBURG    LGT RAIN  72  70  93 SW8G17    29.97R
$$

WVZ006-141700-
Western West Virginia

CITY           SKY/WX    TMP DP  RH WIND       PRES   REMARKS
HUNTINGTON     LGT RAIN  73  71  93 SW6       29.97F
$$

WVZ015-141700-
West Central West Virginia

CITY           SKY/WX    TMP DP  RH WIND       PRES   REMARKS
CHARLESTON     PTSUNNY   78  71  79 SW12      29.98S
$$

WVZ031-141700-
North Central West Virginia

CITY           SKY/WX    TMP DP  RH WIND       PRES   REMARKS
CLARKSBURG     CLOUDY    75  69  81 SW6       29.96S
MORGANTOWN     CLOUDY    76  68  76 S9        29.96R
$$

WVZ035-042-045-141700-
South Central West Virginia

CITY           SKY/WX    TMP DP  RH WIND       PRES   REMARKS
BECKLEY        CLOUDY    77  65  66 W9        30.08R
BLUEFIELD      PTSUNNY   80  66  62 W12       30.10F
LEWISBURG      PTSUNNY   83  65  54 SW10      30.05S
$$

WVZ047-141700-
Northern Mountains of West Virginia

CITY           SKY/WX    TMP DP  RH WIND       PRES   REMARKS
ELKINS         PTSUNNY   77  68  73 CALM      30.01F
$$

WVZ052-141700-
Eastern Panhandle of West Virginia

CITY           SKY/WX    TMP DP  RH WIND       PRES   REMARKS
MARTINSBURG    PTSUNNY   84  70  62 S6        29.92F
PETERSBURG     PTSUNNY   84  62  47 NW5       29.94S
$$


USA.gov is the U.S. government's official web portal to all federal, state and local government web resources and services.